This demonstration page uses our WeatherBlox Daily Observations layout. Learn more.

Left ArrowRight Arrow

41.12389, -100.76542

Hourly Observations for December 1, 2022

Temp ( °F °C ) Dew Point ( °F °C ) Humidity (%) Winds ( mph kmh ) Pressure ( in mb ) Visibility ( mi km ) Precip ( " mm )
12:53 am 00:53 Clear 29 -1.7 15 -9.4 56 56 SSE 14 22 30.08 1019 10 16 0.00 0.00
1:53 am 01:53 Clear 26 -3.3 15 -9.4 63 63 SSE 9 15 30.06 1018 10 16 0.00 0.00
2:53 am 02:53 Clear 27 -2.8 15 -9.4 60 60 SSE 13 20 30.02 1017 10 16 0.00 0.00
3:53 am 03:53 Clear 27 -2.8 16 -8.9 63 63 SSE 13 20 29.98 1015 10 16 0.00 0.00
4:53 am 04:53 Clear 26 -3.3 16 -8.9 65 65 S 13 20 29.98 1015 10 16 0.00 0.00
5:53 am 05:53 Clear 24 -4.4 15 -9.4 68 68 SSE 8 13 29.97 1015 10 16 0.00 0.00
6:53 am 06:53 Clear 20 -6.7 13 -10.6 74 74 NE 3 6 29.98 1015 10 16 0.00 0.00
7:53 am 07:53 Sunny 17 -8.3 12 -11.1 80 80 Calm 29.99 1016 10 16 0.00 0.00
8:53 am 08:53 Sunny 23 -5 16 -8.9 74 74 SW 3 6 29.98 1015 10 16 0.00 0.00
9:53 am 09:53 Sunny 30 -1.1 18 -7.8 60 60 SW 7 11 29.94 1014 10 16 0.00 0.00
10:53 am 10:53 Sunny 34 1.1 20 -6.7 56 56 SW 9 15 29.93 1014 10 16 0.00 0.00
11:53 am 11:53 Sunny 39 3.9 22 -5.6 50 50 WSW 6 9 29.90 1013 10 16 0.00 0.00
12:53 pm 12:53 Sunny 47 8.3 24 -4.4 40 40 SW 8 13 29.85 1011 10 16 0.00 0.00
1:53 pm 13:53 Sunny 52 11.1 24 -4.4 33 33 S 10 17 29.80 1009 10 16 0.00 0.00
2:53 pm 14:53 Sunny 56 13.3 23 -5 28 28 S 7 11 29.76 1008 10 16 0.00 0.00
3:53 pm 15:53 Sunny 54 12.2 22 -5.6 28 28 SSE 10 17 29.75 1007 10 16 0.00 0.00
4:53 pm 16:53 Sunny 46 7.8 24 -4.4 42 42 ESE 7 11 29.76 1008 10 16 0.00 0.00
5:53 pm 17:53 Clear 37 2.8 24 -4.4 59 59 E 7 11 29.77 1008 10 16 0.00 0.00
7:53 pm 19:53 Clear 45 7.2 26 -3.3 47 47 SSE 10 17 29.72 1007 10 16 0.00 0.00
8:53 pm 20:53 Clear 45 7.2 26 -3.3 47 47 SE 10 17 29.68 1005 10 16 0.00 0.00
9:53 pm 21:53 Clear 39 3.9 26 -3.3 59 59 ESE 9 15 29.67 1005 10 16 0.00 0.00
10:53 pm 22:53 Clear 43 6.1 27 -2.8 53 53 SSE 12 19 29.63 1004 10 16 0.00 0.00
11:53 pm 23:53 Clear 41 5 27 -2.8 57 57 SSE 7 11 29.62 1003 10 16 0.00 0.00

Powered by AerisWeather